Miscellaneous Local Product
Issued by NWS Hastings, NE

Home | Current Version | Previous Version | Graphics & Text | Print | Product List | Glossary On
Versions: 1 2 3 4 5 6 7 8 9 10 11 12 13 14 15 16 17 18 19 20 21 22 23 24 25 26 27 28 29 30 31 32 33 34 35 36 37 38 39 40 41 42 43 44 45 46 47 48 49 50
714
AXUS43 KGID 230502
MISGRI

GID CWA HOURLY WEATHER ROUNDUP
NATIONAL WEATHER SERVICE HASTINGS NE
1200 AM CDT SAT JUL 23 2016

NOTE: "FAIR" INDICATES FEW OR NO CLOUDS BELOW 12,000 FEET WITH NO
SIGNIFICANT WEATHER AND/OR OBSTRUCTIONS TO VISIBILITY.

...SOUTH CENTRAL NEBRASKA...

CITY           SKY/WX    TMP DP  RH WIND       PRES   REMARKS
GRAND ISLAND   CLOUDY    78  74  87 SE7       29.93F
HASTINGS       CLOUDY    80  71  74 SE9       29.93F
KEARNEY        CLOUDY    79  70  73 E8        29.93F
ORD            CLOUDY    79  76  90 CALM      29.91F
YORK           CLOUDY    77  72  83 SE9       29.93F
AURORA         CLOUDY    76  74  92 SE3       29.92F
LEXINGTON      CLOUDY    78  71  78 E6        29.93S
HOLDREGE       PTCLDY    76  69  78 E6        29.92F
HEBRON         CLOUDY    76  67  75 CALM      29.92R

...NEBRASKA PANHANDLE...

CITY           SKY/WX    TMP DP  RH WIND       PRES   REMARKS
CHADRON        CLOUDY    77  58  51 S21G31    29.90F
ALLIANCE       CLOUDY    67  59  75 SE12      30.01S
SCOTTSBLUFF    CLOUDY    68  59  73 E10       30.02F
SIDNEY         CLOUDY    68  61  78 SE16      30.07S

...WESTERN AND NORTH CENTRAL NEBRASKA...

CITY           SKY/WX    TMP DP  RH WIND       PRES   REMARKS
VALENTINE      CLOUDY    84  74  71 E12       29.91F HX  91
AINSWORTH      CLOUDY    82  77  86 E12       29.92F
ONEILL         CLOUDY    83  76  80 SE9       29.93F HX  92
BROKEN BOW     CLOUDY    76  73  91 N5        29.96S
IMPERIAL       TSTM      72  69  90 N13       30.08R
NORTH PLATTE   CLOUDY    73  62  68 NW21G29   30.04R THUNDER
MCCOOK         CLOUDY    78  71  79 NE5       29.93R

...EASTERN NEBRASKA...

CITY           SKY/WX    TMP DP  RH WIND       PRES   REMARKS
NORFOLK        CLOUDY    80  76  87 NE7       29.92F
TEKAMAH        PTCLDY    82  78  88 SE3       29.91R HX  91
COLUMBUS       CLOUDY    79  68  69 E6        29.92F
ALBION         MOCLDY    78  73  85 NE3       29.92F
OMAHA EPPLEY   CLOUDY    84  79  85 SE9       29.91S HX  96
OFFUTT AFB     PTCLDY    82  80  94 SE6       29.92R HX  95
MILLARD        PTCLDY    84  81  89 SE5       29.92R HX  98
LINCOLN        CLOUDY    80  71  74 S5        29.92F
NEBRASKA CITY  CLOUDY    81  76  85 S8        29.94S
BEATRICE       CLOUDY    79  71  75 E3        29.93R
FALLS CITY     TSTM      82  78  88 SE8       29.94R HX  91

...NORTHERN KANSAS...

CITY           SKY/WX    TMP DP  RH WIND       PRES   REMARKS
GOODLAND       MOCLDY    83  56  39 CALM      30.00R
HILL CITY      CLOUDY    83  64  52 S6        29.91F
NORTON         CLEAR     81  61  50 SE6       29.91S
SMITH CENTER   CLEAR     73  68  83 E9        29.89F
BELOIT         CLEAR     79  70  73 SE7       29.88R
HAYS           CLEAR     88  59  37 SW12      29.92R
RUSSELL        PTCLDY    86  62  44 S13       29.90R
CONCORDIA      PTCLDY    82  70  66 SE12      29.90R
SALINA         CLEAR     88  69  53 SE12      29.89R HX  92
TOPEKA         CLOUDY    86  71  60 SE6       29.94S HX  91



USA.gov is the U.S. government's official web portal to all federal, state and local government web resources and services.